239ALFEROV (RS61S)

Last updated on Sun Jun 21 2026 00:03:20 GMT+0000 (Coordinated Universal Time)

1 64881U 25155F 26171.41741150 .00012390 00000+0 39041-3 0 9999 2 64881 97.4557 140.7047 0008428 149.3276 210.8460 15.33013503 81300
UTC large
Height (km)
Speed (km/s)
/
Latitude / Longitude
Inclination (degrees)
Orbital Period (minutes)
Azimuth
Elevation
Range (km)
Doppler Factor

Next 0 passes for location: London (51.5072 / 0.1276)

No passes found over London.
239ALFEROV (RS61S)